Tracking 18980 objects as of 19-Feb-2018
HD Live streaming from Space Station
objects crossing your sky now

FENGYUN 1C DEB

Track FENGYUN 1C DEB now!
10-day predictions


NORAD ID: 30980
Int'l Code: 1999-025BBW
Perigee: 506.7 km
Apogee: 536.2 km
Inclination: 98.9 °
Period: 94.9 minutes
Semi major axis: 6892 km
RCS: 0.0134 m2 (small)
Launch date: May 10, 1999
Source: People's Republic of China (PRC)
Launch site: Taiyaun Space Center, China (TSC)

Note: This is SATELLITE DEBRIS
aabbcc
Your satellite tracking list
Your tracking list is empty




NASA's NSSDC Master Catalog

Two Line Element Set (TLE):
1 30980U 99025BBW 18037.13116065  .00020482  00000-0  10270-2 0  9995
2 30980  98.8901   0.3205 0021379 294.6590 129.5887 15.17194523581556
Source of the keplerian elements: AFSPC